Погода в Курорте Кука

Россия / Забайкальский край     51˚43′46″N   112˚56′59″E
темп.,
°C
ветер,
м/с
пор.,
м/с
влажн.,
%
обл.,
%
осадки,
мм/ч
давл.,
гПа
погр.,
м
17 января, вс
вс1700:00−23˚зсз3138190 0.0 1024676
03:00−25˚зсз298774 0.0 1023321
06:00−27˚зсз26890 0.0 1025191
09:00−28˚сз22880 0.0 102559
12:00−25˚ссз25650 0.0 1026511
15:00−23˚ссз35560 0.0 10261114
18:00−27˚ссз22730 0.0 102929
21:00−29˚сз22780 0.0 103223
18 января, пн
пн1800:00−30˚зсз11780 0.0 103419
03:00−31˚юз01790 0.0 103519
06:00−32˚ю11810 0.0 103419
09:00−32˚ююв118314 0.0 103319
12:00−28˚вюв116651 0.0 1030220
15:00−25˚юв126376 0.0 1026343
18:00−26˚ссв0198100 0.1 102461
21:00−27˚ю0199100 0.3 102320
19 января, вт
вт1900:00−26˚ю1199100 0.0 102324
03:00−26˚ю119999 0.0 102219
06:00−25˚ю119896 0.0 102120
09:00−24˚ююв119887 0.0 102020
12:00−20˚ююв1290100 0.0 1017141
15:00−15˚ю128095 0.0 1014167
18:00−15˚зюз2587100 0.0 1016116
21:00−17˚з248467 0.0 101952
20 января, ср
ср2000:00−18˚з28890 0.0 1021167
03:00−20˚зюз23910 0.0 102351
06:00−21˚юз229251 0.0 102420
09:00−20˚ююз129176 0.0 102423
12:00−17˚ююв1279100 0.0 1021118
15:00−15˚ююв1287100 0.1 1017216
18:00−17˚ю1297100 0.1 101820
21:00−19˚ююз119589 0.1 102020
21 января, чт
чт2100:00−18˚ююз1191100 0.0 102020
03:00−17˚юз1292100 0.0 102020
06:00−18˚юз129537 0.0 102120
09:00−19˚юз129328 0.0 102420
12:00−14˚юз128161 0.0 1023151
15:00−9˚зюз156462 0.0 1021558
18:00−15˚ююз118924 0.0 102320
21:00−17˚св008816 0.0 102520